User: anonymous   Login
Location: Newark
(43.9494°N, 6.8108°E)
Time: 05:21:56
(UTC+00:00)
Language:

Tiros 1 - Orbit

View from above orbital plane
View from above orbital plane
View from above satellite
View from above satellite

Ground track
Ground track

The orbit data is extracted from the following two-line orbital elements,

1    29U 60002B   19294.62025153 -.00000120 +00000-0 +13126-4 0  9999
2    29 048.3812 000.4379 0024625 285.7865 074.0331 14.74323554183156
Epoch (UTC): 21 October 2019 14:53:09
Eccentricity: 0.0024625
inclination: 48.3812°
perigee height: 630 km
apogee height: 664 km
right ascension of ascending node: 0.4379°
argument of perigee: 285.7865°
revolutions per day: 14.74323554
mean anomaly at epoch: 74.0331°
orbit number at epoch: 18315

The dashed part of the orbit path shows where the satellite is in the earth's shadow,  

DLR